SQ6MTB Weather Reports


Display with metric or nautical units.
time (UTC)temp
F
wind
direction
speed
MPH
gust
MPH
rain 1hr
in
rain 24hr
in
rain mn
in
humidity
%
barometer
mb
20260905161055 67 273 10.0 18.0 0.00 0.20 0.00 59 1016.7
20260905160505 67 238 11.0 21.0 0.00 0.20 0.00 59 1016.6
20260905160013 67 273 8.0 17.0 0.00 0.20 0.00 60 1016.7
20260905155523 68 275 7.0 20.0 0.00 0.20 0.00 59 1016.6
20260905155059 68 262 10.0 20.0 0.00 0.20 0.00 58 1016.6
20260905155006 68 265 10.0 20.0 0.00 0.20 0.00 58 1016.6
20260905154546 68 282 7.0 20.0 0.00 0.20 0.00 58 1016.5
20260905154055 68 232 12.0 23.0 0.00 0.20 0.00 57 1016.5
20260905153505 68 275 13.0 23.0 0.00 0.20 0.00 58 1016.7
20260905153019 68 267 8.0 17.0 0.00 0.20 0.00 60 1016.6
20260905152523 67 275 9.0 17.0 0.00 0.20 0.00 60 1016.6
20260905152029 67 289 10.0 22.0 0.00 0.20 0.00 60 1016.6
20260905151537 67 244 11.0 27.0 0.00 0.20 0.00 60 1016.6
20260905151021 67 246 15.0 27.0 0.00 0.20 0.00 59 1016.6
20260905150554 67 269 12.0 22.0 0.00 0.20 0.00 60 1016.6
20260905150041 67 250 11.0 25.0 0.00 0.20 0.00 60 1016.5
20260905145555 68 267 12.0 25.0 0.00 0.20 0.00 58 1016.6
20260905145003 68 290 9.0 23.0 0.00 0.20 0.00 59 1016.4
20260905144514 68 243 11.0 26.0 0.00 0.20 0.00 57 1016.5
20260905144046 69 268 14.0 26.0 0.00 0.20 0.00 57 1016.4
20260905143529 70 290 14.0 24.0 0.00 0.20 0.00 57 1016.3
20260905143018 69 247 11.0 23.0 0.00 0.20 0.00 58 1016.4
20260905142525 68 293 8.0 23.0 0.00 0.20 0.00 58 1016.4
20260905142032 68 283 8.0 25.0 0.00 0.20 0.00 59 1016.4
20260905141543 68 255 14.0 25.0 0.00 0.20 0.00 58 1016.5
20260905141046 68 227 10.0 21.0 0.00 0.20 0.00 58 1016.4
20260905140555 68 205 11.0 23.0 0.00 0.20 0.00 58 1016.5
20260905140007 68 254 13.0 24.0 0.00 0.20 0.00 57 1016.5
20260905135546 68 235 12.0 24.0 0.00 0.20 0.00 58 1016.3
20260905135025 68 254 10.0 24.0 0.00 0.20 0.00 57 1016.2
20260905134538 69 265 10.0 24.0 0.00 0.20 0.00 57 1016.2
20260905134049 69 265 12.0 21.0 0.00 0.20 0.00 57 1016.2
20260905133555 68 319 12.0 22.0 0.00 0.20 0.00 58 1016.2
20260905133005 68 267 9.0 24.0 0.00 0.20 0.00 59 1016.3
20260905132545 68 274 12.0 25.0 0.00 0.20 0.00 58 1016.5
20260905132055 68 271 9.0 19.0 0.00 0.20 0.00 59 1016.4
20260905131508 68 262 9.0 24.0 0.00 0.20 0.00 60 1016.3
20260905131015 68 236 16.0 24.0 0.00 0.20 0.00 60 1016.4
20260905130520 67 269 11.0 18.0 0.00 0.20 0.00 62 1016.4
20260905130022 67 302 10.0 17.0 0.00 0.20 0.00 62 1016.3
20260905125505 67 245 7.0 18.0 0.00 0.20 0.00 62 1016.3
20260905125017 67 266 7.0 18.0 0.00 0.20 0.00 61 1016.3
20260905124524 67 284 8.0 16.0 0.00 0.20 0.00 61 1016.3
20260905124031 68 273 9.0 19.0 0.00 0.20 0.00 59 1016.4
20260905123538 68 278 10.0 19.0 0.00 0.20 0.00 58 1016.3
20260905123051 68 255 10.0 18.0 0.00 0.20 0.00 59 1016.3
20260905122528 68 238 10.0 18.0 0.00 0.20 0.00 59 1016.3
20260905122040 68 296 8.0 18.0 0.00 0.20 0.00 59 1016.3
20260905121519 68 267 9.0 26.0 0.00 0.20 0.00 60 1016.2
20260905121059 68 234 15.0 30.0 0.00 0.20 0.00 57 1016.2
20260905120509 69 274 16.0 30.0 0.00 0.20 0.00 57 1016.2
20260905120045 69 281 9.0 16.0 0.00 0.20 0.00 57 1016.1
20260905115533 68 265 7.0 18.0 0.00 0.20 0.00 58 1016.4
20260905115046 67 287 9.0 18.0 0.00 0.20 0.00 58 1016.4
20260905114547 67 283 9.0 17.0 0.00 0.20 0.00 59 1016.4
20260905114027 66 265 8.0 17.0 0.00 0.20 0.00 60 1016.6
20260905113509 66 278 7.0 16.0 0.00 0.20 0.00 59 1016.5
20260905113025 66 255 8.0 23.0 0.00 0.20 0.00 58 1016.5
20260905112527 67 249 10.0 23.0 0.00 0.20 0.00 57 1016.7
20260905112009 67 268 14.0 23.0 0.00 0.20 0.00 56 1016.7
20260905111555 68 268 15.0 21.0 0.00 0.20 0.00 56 1016.8
20260905111055 68 227 11.0 21.0 0.00 0.20 0.00 57 1016.6
20260905110505 68 277 11.0 24.0 0.00 0.20 0.00 57 1016.7
20260905110015 67 234 11.0 20.0 0.00 0.20 0.00 57 1016.8
20260905105549 67 232 11.0 20.0 0.00 0.20 0.00 60 1016.8
20260905105031 66 251 8.0 25.0 0.00 0.20 0.00 59 1016.7
20260905104545 67 246 13.0 25.0 0.00 0.20 0.00 58 1016.7
20260905104046 67 210 10.0 19.0 0.00 0.20 0.00 58 1016.7
20260905103528 66 235 10.0 19.0 0.00 0.20 0.00 58 1016.7
20260905103011 67 288 10.0 17.0 0.00 0.20 0.00 57 1016.7
20260905102520 67 223 6.0 21.0 0.00 0.20 0.00 60 1016.7
20260905102031 67 202 8.0 23.0 0.00 0.20 0.00 61 1016.8
20260905101539 67 255 9.0 27.0 0.00 0.20 0.00 62 1016.8
20260905101020 66 286 10.0 20.0 0.00 0.20 0.00 63 1016.8
20260905100528 65 261 11.0 21.0 0.00 0.20 0.00 62 1016.8
20260905100049 66 277 10.0 21.0 0.00 0.20 0.00 61 1016.8
20260905095518 67 268 11.0 18.0 0.00 0.20 0.00 61 1016.6
20260905095023 66 281 9.0 19.0 0.00 0.20 0.00 62 1016.5
20260905094559 66 272 10.0 23.0 0.00 0.20 0.00 63 1016.6
20260905094042 64 286 14.0 23.0 0.00 0.20 0.00 64 1016.7
20260905093551 64 270 12.0 21.0 0.00 0.20 0.00 64 1016.8
20260905093101 64 260 8.0 20.0 0.00 0.20 0.00 65 1016.7
20260905092511 64 270 9.0 20.0 0.00 0.20 0.00 67 1016.7
20260905092018 64 250 9.0 19.0 0.00 0.20 0.00 66 1016.7
20260905091557 64 253 11.0 19.0 0.00 0.20 0.00 65 1016.7
20260905091006 64 250 11.0 23.0 0.00 0.20 0.00 65 1016.7
20260905090514 64 309 12.0 23.0 0.00 0.20 0.00 65 1016.6
20260905090019 64 275 9.0 21.0 0.00 0.20 0.00 65 1016.7
20260905085555 64 255 11.0 23.0 0.00 0.20 0.00 66 1016.6
20260905085506 64 252 11.0 23.0 0.00 0.20 0.00 65 1016.6
20260905085042 64 286 12.0 23.0 0.00 0.20 0.00 65 1016.6
20260905084603 64 269 9.0 20.0 0.00 0.20 0.00 66 1016.5
20260905084059 64 236 12.0 21.0 0.00 0.20 0.00 66 1016.5
20260905083508 64 254 11.0 21.0 0.00 0.20 0.00 66 1016.4
20260905083017 64 180 11.0 20.0 0.00 0.20 0.00 68 1016.5
20260905082554 64 249 11.0 22.0 0.00 0.20 0.00 68 1016.3
20260905082007 64 261 14.0 22.0 0.00 0.20 0.00 69 1016.5
20260905081519 64 253 11.0 20.0 0.00 0.20 0.00 70 1016.4
20260905081026 64 246 12.0 20.0 0.00 0.20 0.00 69 1016.4
20260905080530 64 268 9.0 20.0 0.00 0.20 0.00 71 1016.3
20260905080025 64 253 11.0 18.0 0.00 0.20 0.00 71 1016.1
20260905075521 64 281 10.0 18.0 0.00 0.20 0.00 72 1016.2
20260905075030 63 248 10.0 21.0 0.00 0.20 0.00 73 1016.1
20260905074545 63 271 14.0 21.0 0.00 0.20 0.00 73 1015.9
20260905074047 63 260 9.0 17.0 0.00 0.20 0.00 75 1016.0
20260905073528 63 240 9.0 20.0 0.00 0.20 0.00 76 1015.9
20260905073043 63 282 11.0 20.0 0.00 0.20 0.00 76 1016.0
20260905072552 62 263 9.0 17.0 0.00 0.20 0.00 77 1015.9
20260905072054 62 272 8.0 17.0 0.00 0.20 0.00 77 1015.8
20260905071540 62 243 9.0 19.0 0.00 0.20 0.00 77 1015.8
20260905071048 62 267 7.0 19.0 0.00 0.20 0.00 79 1015.6
20260905070552 61 235 10.0 20.0 0.00 0.20 0.00 78 1015.6
20260905070040 61 236 9.0 20.0 0.00 0.20 0.00 79 1015.5
20260905065516 61 275 12.0 18.0 0.00 0.20 0.00 80 1015.6
20260905065025 61 197 10.0 18.0 0.00 0.20 0.00 81 1015.6
20260905064532 60 264 11.0 17.0 0.00 0.20 0.00 81 1015.5
20260905064014 60 251 10.0 16.0 0.00 0.20 0.00 81 1015.5
20260905063555 60 277 10.0 17.0 0.00 0.20 0.00 82 1015.5
20260905063004 59 252 11.0 17.0 0.00 0.20 0.00 83 1015.6
20260905062514 59 275 7.0 16.0 0.00 0.20 0.00 83 1015.6
20260905062020 59 259 9.0 18.0 0.00 0.20 0.00 84 1015.6
20260905061601 58 250 9.0 16.0 0.00 0.20 0.00 84 1015.7
20260905061502 58 246 7.0 16.0 0.00 0.20 0.00 84 1015.7
20260905061014 58 300 9.0 15.0 0.00 0.20 0.00 85 1015.6
20260905060518 58 292 7.0 14.0 0.00 0.20 0.00 86 1015.6
20260905060040 58 265 8.0 14.0 0.00 0.20 0.00 86 1015.6
20260905055602 58 263 8.0 15.0 0.00 0.20 0.00 86 1015.5
20260905055507 58 259 8.0 15.0 0.00 0.20 0.00 86 1015.5
20260905055046 58 275 6.0 15.0 0.00 0.20 0.00 87 1015.5
20260905054604 57 258 8.0 18.0 0.00 0.20 0.00 87 1015.4
20260905054008 57 229 8.0 16.0 0.00 0.20 0.00 88 1015.3
20260905053551 57 210 8.0 16.0 0.00 0.20 0.00 87 1015.1
20260905053026 57 268 7.0 15.0 0.00 0.20 0.00 88 1015.1
20260905052534 57 278 3.0 15.0 0.00 0.20 0.00 88 1014.9
20260905052046 57 259 5.0 15.0 0.00 0.20 0.00 89 1015.0
20260905051553 57 250 8.0 15.0 0.00 0.20 0.00 89 1014.9
20260905051028 57 275 7.0 13.0 0.00 0.20 0.00 89 1014.8
20260905050510 57 238 5.0 13.0 0.00 0.20 0.00 89 1014.9
20260905050021 57 254 5.0 13.0 0.00 0.20 0.00 89 1014.8
20260905045525 57 250 6.0 14.0 0.00 0.20 0.00 89 1014.7
20260905045034 57 219 7.0 14.0 0.00 0.20 0.00 89 1014.7
20260905044520 57 261 6.0 14.0 0.00 0.20 0.00 89 1014.5
20260905044024 57 288 5.0 13.0 0.00 0.20 0.00 89 1014.5
20260905043532 57 225 5.0 12.0 0.00 0.20 0.00 89 1014.4
20260905043012 57 305 7.0 13.0 0.00 0.20 0.00 89 1014.4
20260905042553 57 258 8.0 13.0 0.00 0.20 0.00 89 1014.2
20260905042100 57 238 5.0 13.0 0.00 0.20 0.00 89 1014.2
20260905042002 57 269 6.0 13.0 0.00 0.20 0.00 89 1014.2
20260905041510 57 293 6.0 17.0 0.00 0.20 0.00 89 1014.2
20260905041018 58 261 8.0 17.0 0.00 0.20 0.00 89 1014.1
20260905040558 58 243 8.0 15.0 0.00 0.20 0.00 89 1014.1
20260905040008 58 254 7.0 16.0 0.00 0.20 0.00 89 1014.1
20260905035514 58 252 9.0 16.0 0.00 0.20 0.00 89 1014.0
20260905035054 58 277 7.0 16.0 0.00 0.20 0.00 89 1014.0
20260905034505 58 266 7.0 16.0 0.00 0.20 0.00 89 1013.8
20260905034015 58 238 9.0 17.0 0.00 0.20 0.00 88 1013.7
20260905033521 58 247 7.0 17.0 0.00 0.20 0.00 89 1013.7
20260905033030 58 263 9.0 17.0 0.00 0.20 0.00 88 1013.7
20260905032540 58 260 7.0 15.0 0.00 0.20 0.00 88 1013.6
20260905032047 58 270 9.0 15.0 0.00 0.20 0.00 88 1013.6
20260905031536 58 249 9.0 18.0 0.00 0.20 0.00 88 1013.6
20260905031033 58 296 9.0 18.0 0.00 0.20 0.00 88 1013.4
20260905030541 58 278 9.0 18.0 0.00 0.20 0.00 88 1013.3
20260905030024 58 242 8.0 15.0 0.00 0.20 0.00 89 1013.3
20260905025531 58 254 7.0 17.0 0.00 0.20 0.00 89 1013.2
20260905025044 58 280 9.0 17.0 0.00 0.20 0.00 89 1013.2
20260905024548 58 286 10.0 17.0 0.00 0.20 0.00 89 1013.2
20260905024030 58 275 8.0 17.0 0.00 0.20 0.00 89 1013.1
20260905023518 58 252 9.0 16.0 0.00 0.20 0.00 90 1013.2
20260905023021 58 254 10.0 16.0 0.00 0.20 0.00 90 1013.1
20260905022531 58 277 6.0 11.0 0.00 0.20 0.00 90 1013.0
20260905022014 58 274 4.0 13.0 0.00 0.20 0.00 90 1013.0
20260905021552 59 254 8.0 13.0 0.00 0.20 0.00 90 1013.0
20260905021059 59 251 8.0 12.0 0.00 0.20 0.00 90 1012.8
20260905020507 59 299 7.0 12.0 0.00 0.20 0.00 90 1012.7
20260905020050 59 285 3.0 13.0 0.00 0.20 0.00 90 1012.6
20260905015524 59 261 6.0 16.0 0.00 0.20 0.00 90 1012.6
20260905015033 59 279 7.0 16.0 0.00 0.20 0.00 90 1012.7
20260905014540 59 243 7.0 17.0 0.00 0.20 0.00 90 1012.6
20260905014024 59 245 8.0 18.0 0.00 0.20 0.00 90 1012.5
20260905013506 59 275 10.0 16.0 0.00 0.20 0.00 91 1012.5
20260905013011 59 236 8.0 17.0 0.00 0.20 0.00 91 1012.6
20260905012520 59 243 11.0 17.0 0.00 0.20 0.00 91 1012.7
20260905012100 59 262 8.0 15.0 0.00 0.20 0.00 91 1012.4
20260905012002 59 249 8.0 15.0 0.00 0.20 0.00 91 1012.4
20260905011509 59 246 7.0 14.0 0.00 0.20 0.00 91 1012.2
20260905011016 59 269 7.0 14.0 0.00 0.20 0.00 90 1012.3
20260905010522 59 282 8.0 17.0 0.00 0.20 0.00 90 1012.3
20260905010004 59 259 9.0 17.0 0.00 0.20 0.00 90 1012.3
20260905005512 59 271 9.0 16.0 0.00 0.20 0.00 90 1012.4
20260905005021 59 212 6.0 20.0 0.00 0.20 0.00 91 1012.5
20260905004533 60 257 10.0 20.0 0.00 0.20 0.00 91 1012.2
20260905004008 60 278 11.0 18.0 0.00 0.20 0.00 91 1012.6
20260905003547 60 202 11.0 18.0 0.00 0.20 0.00 91 1012.0
20260905003059 60 263 9.0 18.0 0.00 0.20 0.00 92 1012.2
20260905002508 60 248 10.0 18.0 0.00 0.20 0.00 92 1012.0
20260905002044 60 267 10.0 18.0 0.00 0.20 0.00 92 1012.3
20260905001526 60 242 9.0 18.0 0.00 0.20 0.00 92 1012.1
20260905001031 60 266 10.0 18.0 0.00 0.20 0.00 92 1012.3
20260905000540 60 254 7.0 18.0 0.00 0.20 0.00 92 1012.0
20260905000022 60 254 9.0 15.0 0.00 0.20 0.00 92 1012.2
20260904235529 60 227 10.0 18.0 0.00 0.20 0.00 92 1012.0
20260904235044 60 305 10.0 18.0 0.00 0.20 0.00 92 1011.8
20260904234545 60 277 9.0 15.0 0.00 0.20 0.00 93 1011.6
20260904234027 60 275 9.0 16.0 0.00 0.20 0.00 93 1011.6
20260904233509 60 263 10.0 16.0 0.00 0.20 0.00 93 1011.8
20260904233036 60 251 6.0 14.0 0.00 0.20 0.00 93 1011.5
20260904232530 60 273 7.0 17.0 0.00 0.20 0.00 93 1011.5
20260904232034 60 279 6.0 18.0 0.00 0.20 0.00 93 1011.7
20260904231520 60 234 12.0 18.0 0.00 0.20 0.00 93 1011.9
20260904231023 60 261 9.0 17.0 0.00 0.20 0.00 93 1011.9
20260904230533 60 253 7.0 18.0 0.00 0.20 0.00 93 1011.5
20260904230046 60 269 9.0 18.0 0.00 0.20 0.00 93 1011.5
20260904225548 60 280 8.0 19.0 0.01 0.20 0.00 93 1011.3
20260904225034 60 270 10.0 19.0 0.01 0.20 0.00 93 1011.5
20260904224542 60 200 11.0 19.0 0.02 0.20 0.00 93 1011.6
20260904224051 60 246 7.0 14.0 0.02 0.20 0.00 93 1011.5
20260904223559 60 255 7.0 17.0 0.02 0.20 0.00 93 1011.4
20260904223008 60 269 6.0 17.0 0.02 0.20 0.00 93 1011.2
20260904222547 60 240 9.0 15.0 0.02 0.20 0.00 93 1011.2
20260904222055 60 260 7.0 17.0 0.02 0.20 0.00 93 1011.2
20260904221557 60 223 8.0 17.0 0.03 0.20 0.00 93 1011.2
20260904221505 60 281 8.0 17.0 0.03 0.20 0.00 93 1011.2
20260904221043 60 268 9.0 17.0 0.04 0.20 0.00 93 1011.1
20260904220552 60 211 7.0 16.0 0.04 0.20 0.00 93 1010.5
20260904220107 60 244 10.0 15.0 0.05 0.20 0.20 93 1010.6
20260904215534 60 190 7.0 17.0 0.05 0.20 0.20 93 1010.2
20260904215014 60 263 8.0 17.0 0.05 0.20 0.20 92 1010.8
20260904214527 60 281 7.0 16.0 0.06 0.19 0.19 92 1010.6
20260904214035 60 279 9.0 16.0 0.06 0.18 0.18 92 1010.9
20260904213518 60 234 10.0 16.0 0.07 0.18 0.18 92 1010.6
20260904213052 60 275 8.0 21.0 0.08 0.18 0.18 92 1010.8
20260904212600 60 255 7.0 21.0 0.08 0.18 0.18 92 1010.3
20260904212006 60 241 7.0 17.0 0.09 0.18 0.18 92 1010.3
20260904211543 60 283 7.0 17.0 0.08 0.17 0.17 92 1010.0
20260904211026 59 220 8.0 16.0 0.07 0.17 0.17 92 1010.0
20260904210533 60 242 8.0 14.0 0.08 0.17 0.17 92 1010.1
20260904210044 60 236 8.0 13.0 0.08 0.16 0.16 92 1010.1
20260904205548 60 273 6.0 16.0 0.08 0.15 0.15 92 1010.3
20260904205033 60 273 10.0 16.0 0.09 0.15 0.15 92 1010.2
20260904204514 60 271 8.0 14.0 0.09 0.13 0.13 91 1010.0
20260904204048 60 200 8.0 13.0 0.08 0.13 0.13 91 1010.0
20260904203553 60 259 5.0 16.0 0.07 0.11 0.11 91 1010.3
20260904203004 60 241 9.0 14.0 0.07 0.10 0.10 91 1010.1
20260904202510 60 284 6.0 16.0 0.06 0.09 0.10 91 1010.2
20260904202019 60 263 10.0 16.0 0.06 0.09 0.09 91 1009.9
20260904201534 60 238 5.0 15.0 0.07 0.09 0.09 90 1009.5
20260904201009 60 257 6.0 15.0 0.07 0.09 0.09 90 1009.7
20260904200547 60 257 7.0 17.0 0.06 0.09 0.09 90 1010.0
20260904200057 60 290 7.0 17.0 0.06 0.08 0.08 90 1009.8
20260904195508 60 279 5.0 13.0 0.06 0.07 0.07 89 1009.9
20260904195043 60 277 7.0 15.0 0.04 0.06 0.06 89 1009.6
20260904194525 60 251 8.0 15.0 0.03 0.05 0.05 88 1009.7
20260904194033 60 228 3.0 14.0 0.03 0.05 0.05 88 1010.0
20260904193545 61 284 7.0 14.0 0.02 0.04 0.04 87 1010.3
20260904193049 61 228 8.0 15.0 0.02 0.03 0.03 86 1010.3
20260904192551 61 252 8.0 15.0 0.02 0.03 0.03 85 1010.0
20260904192100 62 267 8.0 15.0 0.02 0.03 0.03 83 1010.1
20260904192003 62 284 5.0 15.0 0.02 0.03 0.03 83 1010.3
20260904191507 62 217 5.0 21.0 0.01 0.02 0.02 82 1010.3
20260904191017 63 246 6.0 19.0 0.01 0.02 0.02 80 1010.3
20260904190522 64 220 8.0 19.0 0.01 0.02 0.02 78 1010.5
20260904190054 64 246 6.0 16.0 0.00 0.02 0.02 76 1010.6
20260904185541 65 253 6.0 16.0 0.00 0.02 0.02 75 1010.6
20260904185053 65 317 1.0 26.0 0.00 0.02 0.02 76 1010.4
20260904184553 65 277 5.0 21.0 0.00 0.02 0.02 75 1010.5
20260904184035 65 325 12.0 28.0 0.00 0.02 0.02 76 1010.4
20260904183517 65 271 5.0 17.0 0.00 0.02 0.02 77 1009.9
20260904183025 65 249 9.0 21.0 0.00 0.02 0.02 77 1009.7
20260904182600 65 269 9.0 19.0 0.00 0.02 0.02 76 1009.7
20260904182507 65 269 9.0 19.0 0.00 0.02 0.02 76 1009.7
20260904182046 65 246 7.0 16.0 0.00 0.02 0.02 77 1009.4
20260904181556 65 276 9.0 19.0 0.00 0.02 0.02 77 1009.3
20260904181005 65 257 11.0 19.0 0.00 0.02 0.02 77 1009.3
20260904180514 65 272 11.0 19.0 0.00 0.02 0.02 78 1009.4
20260904180100 65 257 10.0 24.0 0.00 0.02 0.02 78 1009.3
20260904175502 65 261 9.0 24.0 0.00 0.02 0.02 79 1009.0
20260904175008 65 274 10.0 18.0 0.00 0.02 0.02 79 1008.8
20260904174524 65 264 7.0 18.0 0.02 0.02 0.02 80 1008.7
20260904174022 65 266 10.0 17.0 0.02 0.02 0.02 80 1008.6
20260904173558 66 247 11.0 17.0 0.02 0.02 0.02 79 1008.5
20260904173500 66 282 11.0 17.0 0.02 0.02 0.02 79 1008.5
20260904173108 66 51 10.0 18.0 0.02 0.02 0.02 80 1008.4
20260904172552 66 320 11.0 18.0 0.02 0.02 0.02 81 1008.3
20260904172057 66 326 8.0 18.0 0.02 0.02 0.02 81 1008.3
20260904171507 67 344 7.0 20.0 0.02 0.02 0.02 79 1008.2
20260904171014 67 213 8.0 20.0 0.02 0.02 0.02 78 1008.1
20260904170554 68 292 8.0 20.0 0.02 0.02 0.02 79 1008.1
20260904170033 68 306 9.0 20.0 0.02 0.02 0.02 79 1008.1
20260904165548 70 271 7.0 20.0 0.02 0.02 0.02 78 1007.7
20260904165051 72 243 10.0 47.0 0.02 0.02 0.02 78 1007.8
20260904164556 76 292 22.0 47.0 0.00 0.00 0.01 71 1007.2
20260904164504 76 252 22.0 47.0 0.00 0.00 0.00 70 1007.1
20260904164032 77 283 6.0 20.0 0.00 0.00 0.00 66 1006.0
20260904163519 77 202 7.0 20.0 0.00 0.00 0.00 64 1005.8
20260904163054 77 281 4.0 18.0 0.00 0.00 0.00 64 1005.8
20260904162506 77 248 7.0 23.0 0.00 0.00 0.00 64 1006.1
20260904162012 77 288 4.0 18.0 0.00 0.00 0.00 64 1006.2
20260904161519 77 168 8.0 20.0 0.00 0.00 0.00 64 1006.2